sat.trackr.live / text

‹ back to catalog

OPTOS

NORAD 39420 · 2013-066E

PAYLOAD ACTIVE UNKNOWN

§ Identity

Operator
Country
SPN
Launch date
2013-11-21
Launch site
DLS
Launch vehicle
Mass (kg)
RCS (m²)
0.05

External: N2YO · Heavens-Above · Gunter

§ Orbital elements

Epoch: 2026-09-20T01:52:02.771040Z

Period
97.79 min
Inclination
97.6666°
Eccentricity
0.0117530
Mean motion
14.72520947 rev/d
Perigee alt
570.4 km
Apogee alt
735.7 km
Semi-major
7,031.2 km
B*
1.3286e-4
RAAN
122.6878°
Arg perigee
65.7224°
Mean anomaly
295.6209°
Rev number
68,548

§ Raw data

OPTOS1 39420U 13066E   26263.07780985  .00000889  00000+0  13286-3 0  99942 39420  97.6666 122.6878 0117530  65.7224 295.6209 14.72520947685482

JSON: /api/v1/satellites/39420 · /tle

For live sub-satellite position, see the globe view (requires WebGL).

§ Visibility from observer

Set your observer location to see the next 7 days of passes ≥ 10°. The values pass through the URL so the page stays shareable.

No JS? Fill the form by hand. The geolocation button needs JavaScript.